This is the latest recevied weather packets stored in our database for station/object KC9Q. If no packets are shown the sender has not sent any weather packets the latest 1 day(s).
| Time | Temp. | Humidity | Pressure | Rain* | Wind** | Luminosity | Snow |
|---|---|---|---|---|---|---|---|
| 1778043647 | 10° C | 98% | 1008.6 hPa | 0.51 mm | 5.36 m/s, 4° | 0 W/m² | - |
| 1778043343 | 10° C | 98% | 1008.4 hPa | 0.51 mm | 5.81 m/s, 0° | 0 W/m² | - |
| 1778043040 | 10.56° C | 98% | 1008.5 hPa | 0 mm | 5.36 m/s, 10° | 0 W/m² | - |
| 1778042738 | 10.56° C | 97% | 1008.3 hPa | 0 mm | 6.71 m/s, 10° | 0 W/m² | - |
| 1778042435 | 10.56° C | 97% | 1008.4 hPa | 0 mm | 5.81 m/s, 6° | 0 W/m² | - |
| 1778042132 | 10.56° C | 98% | 1008.3 hPa | 0 mm | 8.05 m/s, 8° | 0 W/m² | - |
| 1778041830 | 10.56° C | 98% | 1008.3 hPa | 0 mm | 5.81 m/s, 2° | 0 W/m² | - |
| 1778041529 | 10.56° C | 98% | 1008.5 hPa | 0 mm | 6.71 m/s, 7° | 0 W/m² | - |
| 1778041227 | 10.56° C | 98% | 1008.7 hPa | 0 mm | 5.36 m/s, 2° | 0 W/m² | - |
| 1778040925 | 10.56° C | 98% | 1008.9 hPa | 0 mm | 4.47 m/s, 1° | 0 W/m² | - |
| 1778040621 | 10.56° C | 98% | 1008.9 hPa | 0 mm | 5.36 m/s, 359° | 0 W/m² | - |
| 1778040319 | 10.56° C | 99% | 1008.9 hPa | 0 mm | 6.26 m/s, 8° | 0 W/m² | - |
| 1778040015 | 10.56° C | 99% | 1008.7 hPa | 0 mm | 4.92 m/s, 351° | 0 W/m² | - |
| 1778039712 | 10.56° C | 99% | 1008.6 hPa | 0 mm | 4.02 m/s, 345° | 0 W/m² | - |
| 1778039409 | 10.56° C | 99% | 1008.7 hPa | 0.51 mm | 5.81 m/s, 354° | 0 W/m² | - |
| 1778039107 | 10.56° C | 99% | 1008.8 hPa | 0.51 mm | 3.58 m/s, 0° | 0 W/m² | - |
| 1778038803 | 10.56° C | 98% | 1009.1 hPa | 0 mm | 3.58 m/s, 346° | 0 W/m² | - |
| 1778038501 | 10.56° C | 98% | 1008.8 hPa | 0 mm | 5.36 m/s, 343° | 0 W/m² | - |
| 1778038197 | 10.56° C | 98% | 1009 hPa | 0 mm | 5.81 m/s, 352° | 0 W/m² | - |
| 1778037895 | 10.56° C | 99% | 1008.6 hPa | 0 mm | 6.71 m/s, 5° | 0 W/m² | - |
| 1778037591 | 10.56° C | 99% | 1008.8 hPa | 0.51 mm | 4.47 m/s, 348° | 0 W/m² | - |
| 1778037289 | 10.56° C | 99% | 1008.6 hPa | 2.29 mm | 2.24 m/s, 351° | 0 W/m² | - |
| 1778036986 | 10.56° C | 99% | 1008.6 hPa | 2.29 mm | 4.47 m/s, 336° | 0 W/m² | - |
| 1778036684 | 10.56° C | 99% | 1008.4 hPa | 0.51 mm | 4.02 m/s, 358° | 0 W/m² | - |
| 1778036380 | 10.56° C | 99% | 1008.1 hPa | 1.27 mm | 4.47 m/s, 9° | 0 W/m² | - |
* Rain latest hour (hover to see other rain measurements)
** Current wind speed in m/s (hover to see current wind gust speed)